Location: *
(33.0215°S, 83.2517°E)
Time: 13:11:10
(UTC+00:00)

Daily predictions for brighter satellites

Satellite Brightness Start Highest point End
(mag) Time Altitude Azimuth Time Altitude Azimuth Time Altitude Azimuth
ERBS 2.4 12:03:08 10° NNW 12:06:30 64° NE 12:09:56 10° SE
Cosmos 1733 3.8 12:03:08 10° NNE 12:06:42 36° E 12:10:20 10° SSE
TELKOM 3 3.4 12:05:33 10° SW 12:08:06 56° SE 12:11:12 10° ENE
Cosmos 2266 Rocket 4.5 12:03:23 10° SSE 12:08:58 36° ESE 12:14:28 10° NE
Cosmos 540 Rocket 4.5 12:06:43 10° SSW 12:11:45 52° WNW 12:16:43 10° N
BREEZE-M DEB (TANK) 4.2 12:07:06 10° NW 12:11:47 78° NE 12:31:12 10° SE
YAOGAN 6 3.6 12:09:53 10° SE 12:12:54 25° E 12:15:52 10° NNE
CZ-2C R/B 4.3 12:12:59 10° ESE 12:14:12 11° ESE 12:15:26 10° SE
GEOS 3 Rocket 4.1 12:11:03 10° ENE 12:15:52 38° SE 12:20:36 10° SSW
SL-24 R/B - RUBIN 2 3.6 12:15:11 10° SSW 12:19:35 74° ESE 12:24:23 10° NNE
PAYLOAD B 4.3 12:14:21 10° SSE 12:20:01 88° WSW 12:25:38 10° NNW
Cosmos 2322 Rocket 2.3 12:14:24 10° SSW 12:20:08 89° WNW 12:25:47 10° NNE
Envisat 3.2 12:16:37 10° SSE 12:21:36 49° E 12:26:32 10° N
Cosmos 1354 Rocket 4.0 12:18:09 10° N 12:23:25 71° ENE 12:28:43 10° SSE
Cosmos 2237 4.3 12:21:49 10° SSW 12:27:29 58° ESE 12:33:06 10° NE
ISS -1.8 12:27:02 10° S 12:29:09 15° SSE 12:29:34 15° SE
GPS 2-04 Rocket1 3.7 12:26:17 10° W 12:29:42 38° NNW 12:32:58 10° NE
Meteor 1-22 Rocket 4.2 12:26:35 10° N 12:32:04 70° E 12:37:51 10° SSE
Cosmos 1805 4.4 12:36:22 10° NNW 12:40:06 45° W 12:43:55 10° S
H-2A R/B 3.8 12:37:22 10° S 12:41:06 46° WSW 12:44:44 10° NNW
Cosmos 2297 Rocket 3.9 12:40:10 10° NE 12:42:27 14° ENE 12:42:27 14° ENE
Cosmos 2292 Rocket 2.5 12:40:10 10° S 12:43:27 67° E 12:46:23 10° NNE
Meteor 2-19 Rocket 4.5 12:37:30 10° S 12:43:44 88° W 12:49:51 10° N
COSMOS 2428 3.8 12:40:00 10° S 12:44:27 23° ESE 12:45:29 21° ESE
Meteor 2-5 Rocket 3.7 12:39:12 10° S 12:44:52 80° E 12:50:35 10° N
KM-V1 4.4 12:41:53 10° W 12:45:57 48° NNW 12:47:21 23° NE
Cosmos 2322 4.1 12:41:18 10° S 12:46:41 40° ESE 12:52:00 10° NE
Radarsat 4.5 12:43:21 10° SSE 12:48:37 73° ENE 12:53:49 10° N
Cosmos 2219 Rocket 2.9 12:48:39 10° S 12:53:32 29° ESE 12:55:12 25° E
Cosmos 2098 Rocket 4.3 12:46:10 10° S 12:53:44 75° E 13:00:49 10° N
USA 215 3.9 12:48:48 10° NNE 12:55:12 57° NW 13:01:39 10° SW
Cosmos 2360 Rocket 2.2 12:51:08 10° SSW 12:56:49 84° WNW 13:02:27 10° NNE
Cosmos 2333 4.3 12:53:19 10° S 12:58:47 49° ESE 13:04:11 10° NE
Radarsat Rocket 4.4 12:54:16 10° S 13:00:05 63° WSW 13:05:56 10° NNW
Centaur D-1AR AC-39 4.4 12:56:49 10° WNW 13:02:14 44° NNE 22:01:41 10° NE
Meteor 1-24 Rocket 3.6 12:57:45 10° S 13:03:14 86° E 13:08:51 10° N
Cosmos 1892 Rocket 3.4 12:59:15 10° S 13:03:42 84° E 13:08:03 10° N
Cosmos 1553 Rocket 4.4 12:59:00 10° NNE 13:04:37 37° E 13:07:21 26° SE
SL-14 R/B 3.1 13:01:08 10° S 13:05:03 75° E 13:08:56 10° N
Timation 2 Rocket 4.0 13:03:16 10° N 13:09:18 61° ENE 13:12:57 26° SE
Okean O Rocket 3.3 13:05:43 10° S 13:09:44 33° WSW 13:13:43 10° NW
Cosmos 2333 Rocket 2.4 13:04:55 10° S 13:10:22 45° ESE 13:13:26 24° NE
Cosmos 1455 Rocket 3.6 13:07:32 10° NNW 13:11:57 61° W 13:16:27 10° S
Lacrosse 4 Rocket 2.4 13:08:20 10° N 13:11:02 30° NE 13:11:02 30° NE
SMAP 4.1 13:09:34 10° S 13:14:03 44° WSW 13:18:29 10° NW
ASTEX 1 3.7 13:09:08 10° S 13:14:08 70° W 13:19:05 10° NNW
Cosmos 1626 2.3 13:11:20 10° S 13:15:06 71° W 13:18:48 10° N
Cosmos 1953 4.1 13:11:24 10° NNE 13:12:51 20° NNE 13:12:51 20° NNE
Feng Yun 1-1 Rocket 4.3 13:09:33 10° SSE 13:15:27 84° ENE 13:21:23 10° NNW
CZ-4 R/B 3.3 13:22:41 19° NNE 13:22:41 19° NNE 13:24:01 10° NNE
Cosmos 1470 3.3 13:18:55 10° NNW 13:22:52 61° W 13:25:04 25° S
Meteor 2-10 4.2 13:18:32 10° N 13:24:10 59° E 13:25:51 42° SE
Okean 1-7 Rocket 3.9 13:21:16 10° SSW 13:25:51 70° W 13:30:24 10° N
Cosmos 2227 Rocket 3.4 13:21:16 10° NNE 13:24:13 25° NE 13:24:13 25° NE
Okean-O 2.8 13:30:09 59° NNE 13:30:09 59° NNE 13:33:58 10° N
Meteor 2-21 Rocket 4.4 13:23:31 10° S 13:29:43 62° E 13:35:51 10° NNE
Cosmos 1939 Rocket 3.9 13:34:24 36° N 13:34:24 36° N 13:36:56 10° N
Cosmos 2219 3.2 13:31:07 10° N 13:36:25 58° ENE 13:36:25 58° ENE
Aureole 3 Rocket 3.7 13:31:35 10° N 13:38:34 85° E 13:40:08 49° S
Cosmos 967 Rocket 4.3 13:32:59 10° SSW 13:39:23 83° ESE 13:43:12 26° NNE
Helios 1A Rocket 4.1 13:37:50 24° SSW 13:39:52 41° WSW 13:43:47 10° NW
Sakura Rocket 3.9 13:36:43 10° WNW 13:39:34 35° NW 13:39:34 35° NW
Exosat Rocket 4.2 13:36:05 10° N 13:41:46 57° ENE 13:42:00 57° E
MOS 1 Rocket 4.1 13:41:55 10° N 13:47:15 61° W 13:52:42 10° SSW
Cosmos 1340 Rocket 4.4 13:48:21 10° NNW 13:50:38 31° NW 13:50:38 31° NW
CZ-2C R/B 2.6 13:48:35 10° N 13:53:45 76° WNW 13:59:00 10° SSW
ATLAS 3B R/B 4.1 13:48:52 10° WNW 13:55:31 35° SW 14:00:25 17° S
Meteor 2-16 Rocket 4.4 13:50:53 10° S 13:57:43 74° NNE 14:03:13 10° N
DMSP B5D2-2 4.3 13:52:46 10° N 13:57:57 68° WNW 14:03:14 10° SSW
Meteor 2-8 Rocket 4.4 13:57:07 10° N 14:02:46 78° NNW 14:02:46 78° NNW
SL-4 R/B 4.0 14:02:01 10° NW 14:04:21 28° NNW 14:04:21 28° NNW
Cosmos 2297 Rocket 3.4 14:20:53 10° NNW 14:24:19 37° NW 14:24:19 37° NW
COSMOS 2428 3.9 14:23:28 10° SW 14:27:41 38° WSW 14:27:41 38° WSW
Cosmos 2219 Rocket 3.8 14:32:28 10° SW 14:37:10 31° W 14:37:10 31° W
Cosmos 2333 Rocket 4.5 14:50:15 10° SW 14:54:11 20° W 14:55:49 17° WNW
Atlas Centaur 2 4.3 22:44:39 23° N 22:47:52 29° NNE 22:54:04 10° E
Cosmos 2142 Rocket 4.4 23:03:46 71° SSE 23:04:28 83° E 23:10:37 10° N
USA 267 4.5 23:04:19 10° SSE 23:07:59 26° S 23:07:59 26° S
H-2A R/B 4.0 23:13:35 10° NE 23:17:15 39° ESE 23:17:41 38° ESE
Lacrosse 5 rocket 2.9 23:19:37 27° SE 23:19:37 27° SE 23:21:34 10° SE
Lacrosse 4 Rocket 2.1 23:18:49 55° ESE 23:18:55 55° ESE 23:23:19 10° NE
ATLAS 3B R/B 4.0 23:25:21 23° NW 23:25:21 23° NW 23:28:26 10° NNW
Cosmos 2297 Rocket 3.9 23:19:48 10° S 23:24:47 30° ESE 23:29:42 10° ENE
CZ-4C R/B 3.6 23:27:51 35° SSW 23:27:51 35° SSW 23:33:13 10° SSE
CZ-4B DEB 4.1 23:22:51 10° N 23:28:21 81° WNW 23:30:10 44° SSW
Nadezhda 4 Rocket 4.1 23:23:20 10° N 23:29:37 75° E 23:35:55 10° S
Envisat 4.2 23:26:48 10° NE 23:31:34 41° ESE 23:36:22 10° S
Molniya-1 4.4 23:34:46 52° WSW 23:35:46 64° NW 23:52:15 10° NNE
Okean 2 3.3 23:35:09 10° N 23:43:41 - S 23:38:50 69° NW
Cosmos 1271 Rocket 2.8 23:36:53 10° N 23:40:37 73° E 23:44:26 10° SSE
USA 234 3.9 23:34:43 10° ENE 23:41:00 50° SE 23:45:32 19° SSW
Cosmos 1733 3.5 23:40:02 34° SSE 23:41:33 65° E 23:45:21 10° NNE
PAYLOAD B 4.1 23:37:38 10° N 23:43:07 70° WNW 23:46:28 25° SSW
Cosmos 921 Rocket 2.8 23:44:10 10° NNW 23:48:23 75° WSW 23:52:38 10° S
Cosmos 2279 Rocket 4.2 23:48:16 26° SSW 23:51:32 46° W 23:57:27 10° NNW
